TimeCST,TemperatureF,Dew PointF,Humidity,Sea Level PressureIn,VisibilityMPH,Wind Direction,Wind SpeedMPH,Gust SpeedMPH,PrecipitationIn,Events,Conditions,WindDirDegrees,DateUTC
12:53 AM,9.0,-9.9,42,30.35,10.0,NNW,21.9,34.5,N/A,,Clear,330,2014-01-27 06:53:00
1:53 AM,8.1,-9.0,46,30.39,10.0,NNW,19.6,32.2,N/A,,Clear,330,2014-01-27 07:53:00
2:53 AM,7.0,-9.0,48,30.42,10.0,NNW,13.8,-,N/A,,Clear,330,2014-01-27 08:53:00
3:53 AM,5.0,-9.0,52,30.43,10.0,NNW,16.1,26.5,N/A,,Clear,330,2014-01-27 09:53:00
4:53 AM,3.9,-8.0,58,30.45,10.0,NW,10.4,-,N/A,,Clear,320,2014-01-27 10:53:00
5:53 AM,3.0,-7.1,63,30.48,10.0,NW,8.1,-,N/A,,Clear,310,2014-01-27 11:53:00
6:53 AM,3.0,-6.0,66,30.50,10.0,NNW,10.4,-,N/A,,Clear,330,2014-01-27 12:53:00
7:53 AM,1.9,-6.0,69,30.51,10.0,NNW,9.2,-,N/A,,Clear,330,2014-01-27 13:53:00
8:53 AM,3.9,-8.0,58,30.53,10.0,NNW,13.8,25.3,N/A,,Clear,330,2014-01-27 14:53:00
9:53 AM,6.1,-9.0,50,30.55,10.0,NNW,16.1,23.0,N/A,,Clear,340,2014-01-27 15:53:00
10:53 AM,8.1,-9.0,46,30.56,10.0,North,18.4,23.0,N/A,,Clear,350,2014-01-27 16:53:00
11:53 AM,9.0,-9.0,44,30.56,10.0,NNW,11.5,23.0,N/A,,Clear,330,2014-01-27 17:53:00
12:53 PM,12.0,-9.0,39,30.53,10.0,North,12.7,20.7,N/A,,Clear,350,2014-01-27 18:53:00
1:53 PM,12.9,-9.0,37,30.51,10.0,NW,13.8,-,N/A,,Clear,320,2014-01-27 19:53:00
2:53 PM,12.9,-9.9,35,30.50,10.0,North,9.2,19.6,N/A,,Clear,350,2014-01-27 20:53:00
3:53 PM,14.0,-9.9,34,30.50,10.0,NNW,9.2,-,N/A,,Clear,340,2014-01-27 21:53:00
4:53 PM,12.0,-9.9,37,30.52,10.0,NNW,5.8,-,N/A,,Clear,340,2014-01-27 22:53:00
5:53 PM,9.0,-9.9,42,30.53,10.0,North,5.8,-,N/A,,Clear,350,2014-01-27 23:53:00
6:53 PM,8.1,-9.9,44,30.55,10.0,Calm,Calm,-,N/A,,Clear,0,2014-01-28 00:53:00
7:53 PM,6.1,-9.9,48,30.56,10.0,North,3.5,-,N/A,,Clear,350,2014-01-28 01:53:00
8:53 PM,3.9,-9.9,53,30.56,10.0,Calm,Calm,-,N/A,,Clear,0,2014-01-28 02:53:00
9:53 PM,3.0,-9.9,55,30.56,10.0,Calm,Calm,-,N/A,,Clear,0,2014-01-28 03:53:00
10:53 PM,-0.0,-9.9,63,30.57,10.0,Calm,Calm,-,N/A,,Clear,0,2014-01-28 04:53:00
11:53 PM,-0.9,-8.0,72,30.57,10.0,Calm,Calm,-,N/A,,Clear,0,2014-01-28 05:53:00